User: anonymous   Login
Location: Unspecified
(0.0000°N, 0.0000°E)
Time: 03:29:24
(UTC+00:00)
Language:

ISIS 1 - Orbit

View from above orbital plane
View from above orbital plane
View from above satellite
View from above satellite

Ground track
Ground track

The orbit data is extracted from the following two-line orbital elements,

1  3669U 69009A   17173.75923571 +.00000031 +00000-0 +11511-4 0  9993
2  3669 088.4338 147.6880 1712824 025.1399 342.3921 11.29441514989594
Epoch (UTC): 22 June 2017 18:13:17
Eccentricity: 0.1712824
inclination: 88.4338°
perigee height: 576 km
apogee height: 3450 km
right ascension of ascending node: 147.6880°
argument of perigee: 25.1399°
revolutions per day: 11.29441514
mean anomaly at epoch: 342.3921°
orbit number at epoch: 98959

The dashed part of the orbit path shows where the satellite is in the earth's shadow,  

DLR